Location: Luz Observatory
(34.5000°N, 117.2833°W)
Time: 11:05:57
(UTC-08:00)

Hubble Space Telescope - Visible Passes

Search period start: 11 February 2016 00:00
Search period end: 21 February 2016 00:00
Orbit: 540 x 543 km, 28.5° (Epoch: 10 February)

Date Brightness Start Highest point End Pass type
(mag) Time Alt. Az. Time Alt. Az. Time Alt. Az.
11 Feb 2.6 18:39:48 10° SSW 18:42:48 19° SSE 18:44:10 17° SE visible
12 Feb 2.4 18:30:01 10° SW 18:33:17 22° SSE 18:35:23 16° SE visible
12 Feb 3.7 20:10:20 10° WSW 20:10:48 13° WSW 20:10:48 13° WSW visible
13 Feb 2.3 18:20:18 10° SW 18:23:46 26° SSE 18:26:35 13° ESE visible
13 Feb 3.4 20:00:50 10° WSW 20:02:00 17° WSW 20:02:00 17° WSW visible
14 Feb 2.2 18:10:40 10° SW 18:14:15 29° S 18:17:45 11° ESE visible
14 Feb 2.9 19:51:22 10° WSW 19:53:10 22° SW 19:53:10 22° SW visible
15 Feb 2.1 18:01:04 10° SW 18:04:46 31° S 18:08:28 10° ESE visible
15 Feb 2.5 19:41:55 10° WSW 19:44:20 27° SW 19:44:20 27° SW visible
16 Feb 2.0 17:51:30 10° WSW 17:55:16 34° S 17:59:02 10° ESE visible
16 Feb 2.2 19:32:28 10° WSW 19:35:31 30° SSW 19:35:31 30° SSW visible
17 Feb 2.1 19:23:03 10° WSW 19:26:40 29° S 19:26:43 29° S visible
18 Feb 2.3 19:13:40 10° WSW 19:17:09 26° SSW 19:17:57 24° S visible
19 Feb 2.6 19:04:20 10° WSW 19:07:37 23° SSW 19:09:14 18° SSE visible
20 Feb 2.9 18:55:03 10° WSW 18:58:04 19° SSW 19:00:35 12° SSE visible
